Location: Niles Junction
(37.5763°N, 121.9714°W)
Time: 13:34:28
(UTC+00:00)

ALOS - Pass Details

Date: 29 October 2020
Orbit: 684 x 684 km, 97.9° (Epoch: 01 December)

Event Time Altitude Azimuth Distance (km) Brightness Sun altitude
Rises 13:58:37 0° 352° (N) 3,055 5.4 -7.0°
Reaches altitude 10° 14:01:41 10° 330° (NNW) 2,134 4.4 -6.4°
Maximum altitude 14:04:21 15° 295° (WNW) 1,795 3.8 -5.8°
Drops below altitude 10° 14:07:01 10° 260° (W) 2,126 4.2 -5.3°
Sets 14:10:06 0° 238° (WSW) 3,037 5.2 -4.7°
